Hourly Weather Boltichi

Today, 27 July, Tuesday

Time Temperature Precipitation Wind Pressure Humidity
00:00 +20°C° 0.1 mm 4 mps 743 mmHg 77%
01:00 +19°C° 0.1 mm 4 mps 743 mmHg 82%
02:00 +19°C° 0.1 mm 4 mps 743 mmHg 86%
03:00 +19°C° 0 mm 4 mps 743 mmHg 86%
04:00 +19°C° 0 mm 4 mps 743 mmHg 86%
05:00 +19°C° 0 mm 4 mps 742 mmHg 86%
06:00 +20°C° 0 mm 4 mps 742 mmHg 82%
07:00 +21°C° 0 mm 5 mps 742 mmHg 78%
08:00 +22°C° 0 mm 5 mps 742 mmHg 74%
09:00 +23°C° 0 mm 5 mps 742 mmHg 70%
10:00 +26°C° 0 mm 5 mps 742 mmHg 65%
11:00 +27°C° 0 mm 6 mps 742 mmHg 61%
12:00 +28°C° 0 mm 5 mps 742 mmHg 60%
13:00 +28°C° 0 mm 5 mps 742 mmHg 59%
14:00 +29°C° 0 mm 5 mps 741 mmHg 58%
15:00 +28°C° 0.6 mm 5 mps 741 mmHg 63%
16:00 +27°C° 0.6 mm 4 mps 741 mmHg 68%
17:00 +27°C° 0.6 mm 4 mps 740 mmHg 73%
18:00 +25°C° 2.4 mm 3 mps 740 mmHg 80%
19:00 +22°C° 2.4 mm 3 mps 740 mmHg 86%
20:00 +21°C° 2.4 mm 2 mps 740 mmHg 93%
21:00 +20°C° 0.6 mm 2 mps 740 mmHg 94%
22:00 +20°C° 0.6 mm 2 mps 740 mmHg 95%
23:00 +19°C° 0.6 mm 2 mps 741 mmHg 96%

Tomorrow, 28 July, Wednesday

Time Temperature Precipitation Wind Pressure Humidity
00:00 +19°C° 0 mm 2 mps 740 mmHg 96%
01:00 +19°C° 0 mm 2 mps 740 mmHg 96%
02:00 +19°C° 0 mm 2 mps 740 mmHg 96%
03:00 +18°C° 0 mm 2 mps 740 mmHg 95%
04:00 +18°C° 0 mm 2 mps 740 mmHg 95%
05:00 +18°C° 0 mm 2 mps 740 mmHg 95%
06:00 +19°C° 0 mm 2 mps 741 mmHg 91%
07:00 +20°C° 0 mm 2 mps 741 mmHg 87%
08:00 +23°C° 0 mm 2 mps 741 mmHg 83%
09:00 +24°C° 0 mm 2 mps 741 mmHg 77%
10:00 +26°C° 0 mm 2 mps 741 mmHg 70%
11:00 +27°C° 0 mm 2 mps 741 mmHg 64%
12:00 +28°C° 0 mm 3 mps 741 mmHg 61%
13:00 +28°C° 0 mm 3 mps 741 mmHg 58%
14:00 +29°C° 0 mm 3 mps 741 mmHg 55%
15:00 +29°C° 0 mm 2 mps 741 mmHg 57%
16:00 +29°C° 0 mm 2 mps 740 mmHg 58%
17:00 +29°C° 0 mm 2 mps 740 mmHg 59%
18:00 +27°C° 0 mm 1 mps 740 mmHg 64%
19:00 +25°C° 0 mm 1 mps 740 mmHg 69%
20:00 +24°C° 0 mm 1 mps 740 mmHg 74%
21:00 +23°C° 0 mm 1 mps 739 mmHg 76%
22:00 +22°C° 0 mm 1 mps 739 mmHg 78%
23:00 +22°C° 0 mm 1 mps 739 mmHg 80%

Day after tomorrow, 29 July, Thursday

Time Temperature Precipitation Wind Pressure Humidity
00:00 +21°C° 0.3 mm 1 mps 739 mmHg 82%
01:00 +21°C° 0.3 mm 1 mps 739 mmHg 84%
02:00 +20°C° 0.3 mm 1 mps 739 mmHg 86%
03:00 +20°C° 0.8 mm 1 mps 739 mmHg 89%
04:00 +20°C° 0.8 mm 1 mps 739 mmHg 92%
05:00 +20°C° 0.8 mm 1 mps 739 mmHg 95%
06:00 +19°C° 0.1 mm 2 mps 739 mmHg 94%
07:00 +19°C° 0.1 mm 2 mps 739 mmHg 93%
08:00 +20°C° 0.1 mm 2 mps 739 mmHg 92%
09:00 +21°C° 0.1 mm 2 mps 739 mmHg 86%
10:00 +23°C° 0.1 mm 1 mps 739 mmHg 81%
11:00 +24°C° 0.1 mm 1 mps 739 mmHg 75%
12:00 +25°C° 0.5 mm 2 mps 739 mmHg 73%
13:00 +25°C° 0.5 mm 2 mps 739 mmHg 70%
14:00 +26°C° 0.5 mm 3 mps 739 mmHg 67%
15:00 +26°C° 0.4 mm 3 mps 739 mmHg 70%
16:00 +25°C° 0.4 mm 4 mps 739 mmHg 72%
17:00 +25°C° 0.4 mm 4 mps 739 mmHg 74%
18:00 +24°C° 0.1 mm 3 mps 739 mmHg 76%
19:00 +22°C° 0.1 mm 3 mps 739 mmHg 78%
20:00 +21°C° 0.1 mm 2 mps 739 mmHg 80%
21:00 +20°C° 0 mm 2 mps 739 mmHg 79%
22:00 +20°C° 0 mm 2 mps 739 mmHg 79%
23:00 +19°C° 0 mm 2 mps 739 mmHg 78%

30 July, Friday

Time Temperature Precipitation Wind Pressure Humidity
00:00 +19°C° 0 mm 2 mps 739 mmHg 78%
01:00 +18°C° 0 mm 2 mps 739 mmHg 77%
02:00 +18°C° 0 mm 3 mps 739 mmHg 77%
03:00 +17°C° 0 mm 3 mps 739 mmHg 78%
04:00 +17°C° 0 mm 3 mps 739 mmHg 78%
05:00 +16°C° 0 mm 3 mps 739 mmHg 79%
06:00 +18°C° 0 mm 3 mps 739 mmHg 76%
07:00 +19°C° 0 mm 3 mps 739 mmHg 72%
08:00 +21°C° 0 mm 3 mps 739 mmHg 68%
09:00 +22°C° 0 mm 4 mps 739 mmHg 64%
10:00 +23°C° 0 mm 4 mps 739 mmHg 59%
11:00 +25°C° 0 mm 4 mps 739 mmHg 54%
12:00 +26°C° 0 mm 5 mps 739 mmHg 53%
13:00 +27°C° 0 mm 5 mps 738 mmHg 53%
14:00 +27°C° 0 mm 5 mps 738 mmHg 52%
15:00 +27°C° 0 mm 4 mps 738 mmHg 56%
16:00 +26°C° 0 mm 4 mps 737 mmHg 59%
17:00 +26°C° 0 mm 3 mps 737 mmHg 62%
18:00 +25°C° 0.1 mm 3 mps 737 mmHg 67%
19:00 +24°C° 0.1 mm 3 mps 737 mmHg 71%
20:00 +21°C° 0.1 mm 3 mps 737 mmHg 76%
21:00 +20°C° 0.2 mm 3 mps 737 mmHg 82%
22:00 +19°C° 0.2 mm 3 mps 737 mmHg 88%
23:00 +18°C° 0.2 mm 3 mps 737 mmHg 94%

31 July, Saturday

Time Temperature Precipitation Wind Pressure Humidity
00:00 +18°C° 0 mm 3 mps 737 mmHg 94%
01:00 +17°C° 0 mm 3 mps 737 mmHg 94%
02:00 +17°C° 0 mm 3 mps 737 mmHg 95%
03:00 +16°C° 0 mm 2 mps 737 mmHg 93%
04:00 +16°C° 0 mm 2 mps 737 mmHg 92%
05:00 +16°C° 0 mm 2 mps 737 mmHg 90%
06:00 +17°C° 0 mm 2 mps 737 mmHg 84%
07:00 +20°C° 0 mm 1 mps 737 mmHg 78%
08:00 +21°C° 0 mm 1 mps 737 mmHg 72%
09:00 +23°C° 0 mm 1 mps 737 mmHg 67%
10:00 +24°C° 0 mm 1 mps 737 mmHg 61%
11:00 +25°C° 0 mm 2 mps 737 mmHg 55%
12:00 +26°C° 0 mm 2 mps 737 mmHg 53%
13:00 +26°C° 0 mm 2 mps 737 mmHg 51%
14:00 +27°C° 0 mm 2 mps 737 mmHg 49%
15:00 +27°C° 0 mm 2 mps 736 mmHg 52%
16:00 +27°C° 0 mm 2 mps 736 mmHg 54%
17:00 +27°C° 0 mm 2 mps 736 mmHg 56%
18:00 +25°C° 0 mm 2 mps 735 mmHg 62%
19:00 +23°C° 0 mm 1 mps 735 mmHg 67%
20:00 +22°C° 0 mm 1 mps 735 mmHg 72%
21:00 +21°C° 0.6 mm 1 mps 735 mmHg 78%
22:00 +19°C° 0.6 mm 2 mps 735 mmHg 85%
23:00 +18°C° 0.6 mm 3 mps 735 mmHg 91%

1 August, Sunday

Time Temperature Precipitation Wind Pressure Humidity
00:00 +18°C° 0.2 mm 3 mps 736 mmHg 93%
01:00 +17°C° 0.2 mm 3 mps 736 mmHg 94%
02:00 +17°C° 0.2 mm 3 mps 736 mmHg 96%
03:00 +16°C° 0 mm 3 mps 736 mmHg 95%
04:00 +16°C° 0 mm 3 mps 736 mmHg 95%
05:00 +14°C° 0 mm 3 mps 736 mmHg 95%
06:00 +16°C° 0 mm 3 mps 737 mmHg 89%
07:00 +17°C° 0 mm 4 mps 737 mmHg 84%
08:00 +18°C° 0 mm 4 mps 737 mmHg 78%
09:00 +19°C° 0 mm 5 mps 737 mmHg 72%
10:00 +21°C° 0 mm 5 mps 738 mmHg 65%
11:00 +22°C° 0 mm 5 mps 738 mmHg 59%
12:00 +22°C° 0 mm 5 mps 738 mmHg 57%
13:00 +23°C° 0 mm 5 mps 738 mmHg 55%
14:00 +23°C° 0 mm 5 mps 738 mmHg 54%
15:00 +23°C° 0 mm 4 mps 738 mmHg 57%
16:00 +22°C° 0 mm 4 mps 738 mmHg 61%
17:00 +22°C° 0 mm 3 mps 738 mmHg 64%
18:00 +21°C° 0 mm 2 mps 738 mmHg 67%
19:00 +20°C° 0 mm 2 mps 738 mmHg 69%
20:00 +19°C° 0 mm 2 mps 738 mmHg 71%
21:00 +18°C° 0 mm 2 mps 738 mmHg 74%
22:00 +18°C° 0 mm 3 mps 737 mmHg 76%
23:00 +17°C° 0 mm 3 mps 737 mmHg 78%
Show more

We Need Your Consent

Meteoprog and our Service Providers may store and access personal data such as cookies, device identifiers or other similar technologies on your device and process such data to personalise content and ads, as well as provide social media features and to analyse the traffic.

  • Store and/or access information on your device

    Cookies, device identifiers or other information can be stored or accessed on your device for the purposes indicated above.

  • Personalised ads and content, ad and content measurement, audience insights, and products development

    Ads and content can be personalised based on a profile. More data can be added to better personalise ads and content. Ad and content performance can be measured. Insights about the audience who saw the ads and content can be derived. Such data can be used to develop or improve user’s experience, systems and software.

By clicking ‘I Agree’ you will allow the use of indicated cookies, device identifiers, web beacons or other similar technologies. Your settings can be changed in the browser on your device.

For certain purposes, legitimate interests may be relied on, rather than consent. You can read more about this in our Privacy and Cookie Policy.